GFSNIL_sfc_temp_003.txt.gz
Temp
64 62 62 61 58 57 58 58 59 58 57 57 57 56 56 56 56 56 56 56 56 58
62 59 58 58 58 57 58 58 58 56 55 55 55 55 54 55 54 55 55 55 55 56
58 58 57 57 55 55 55 56 55 54 54 54 54 53 53 53 53 53 53 54 54 54
56 56 55 55 55 55 55 54 53 53 53 52 52 52 51 51 51 51 51 52 52 52
55 55 54 54 54 54 53 53 52 52 52 51 51 51 50 49 50 49 49 50 50 50
53 53 53 53 53 53 52 52 52 51 49 49 49 49 49 48 48 48 48 48 48 48
53 53 53 52 51 51 52 50 50 49 49 48 48 48 48 47 46 46 46 45 44 44
53 53 52 51 51 51 50 49 49 48 48 47 48 48 46 45 43 42 40 40 40 40
53 51 50 50 49 49 48 48 47 46 46 45 47 42 39 39 39 37 35 34 36 38
50 49 48 49 49 47 46 46 45 45 44 43 43 40 38 36 36 34 33 33 35 36
50 48 48 47 46 46 46 44 43 43 42 41 41 37 36 35 33 32 33 33 35 35
48 47 46 45 44 44 43 42 42 41 38 36 35 35 34 33 32 32 33 35 35 36
48 47 45 44 43 43 43 41 39 36 36 34 33 34 34 34 32 31 32 34 35 34
48 46 45 43 43 42 40 37 33 32 33 34 34 34 35 35 33 33 32 33 34 35

GFSNIL_sfc_temp_006.txt.gz
Temp
59 57 56 56 55 52 52 52 54 53 52 52 51 50 49 48 48 47 47 47 48 49
58 57 55 56 53 52 52 55 52 51 50 50 49 48 47 46 46 47 47 46 46 47
56 55 54 53 52 52 51 51 50 50 49 48 48 47 46 44 45 45 45 47 46 46
54 53 52 52 51 51 50 50 50 49 48 48 47 47 45 44 45 44 44 45 45 45
52 52 50 50 50 50 49 49 48 48 48 48 47 46 45 44 45 44 43 43 43 43
50 50 49 49 49 49 49 48 48 48 46 46 45 45 44 44 43 43 43 42 42 42
49 50 49 49 48 48 48 47 46 46 45 44 44 45 45 44 42 41 42 41 40 40
49 49 49 48 47 47 46 46 45 44 43 43 44 45 42 41 38 37 37 37 38 37
48 50 48 46 45 45 44 43 43 41 41 40 44 41 40 37 35 35 34 33 34 35
47 47 46 46 45 42 40 40 39 39 39 38 39 40 38 37 33 32 32 31 32 33
48 46 45 44 42 39 39 38 38 37 37 36 37 37 36 35 32 31 31 31 31 31
46 44 43 41 38 38 37 37 36 36 34 33 33 35 35 34 32 30 30 32 32 33
46 44 42 39 37 37 36 36 34 34 33 34 31 34 35 34 32 30 31 33 33 34
45 43 41 39 38 37 35 33 31 28 30 31 32 32 36 36 32 30 29 30 30 32

GFSNIL_sfc_temp_009.txt.gz
Temp
54 55 55 53 50 47 47 49 49 49 48 48 48 48 47 47 47 44 43 42 41 44
52 50 49 47 47 48 48 50 48 47 46 46 45 46 47 44 43 42 43 42 42 43
49 48 47 47 47 47 46 47 46 45 44 44 46 46 45 44 43 42 41 43 40 41
47 47 46 48 47 47 47 46 45 45 45 46 46 46 44 43 42 41 41 40 40 40
46 46 45 45 46 46 45 46 46 46 46 46 45 44 42 41 41 41 40 40 37 39
45 45 44 44 45 46 45 45 45 46 44 44 43 42 41 41 41 40 39 39 38 39
44 44 43 43 43 44 45 43 43 43 43 42 41 42 41 41 39 37 37 35 35 35
42 44 46 45 44 43 43 43 42 41 39 39 39 42 39 36 34 32 32 32 34 35
44 44 45 45 44 42 41 40 39 37 36 35 40 40 38 36 31 31 31 30 32 33
43 42 42 44 43 40 37 36 34 34 34 33 32 38 37 37 33 31 30 29 29 31
43 42 42 41 39 36 34 33 33 32 31 30 34 36 36 35 32 30 30 30 30 30
42 41 40 37 34 34 32 32 30 31 30 29 29 34 35 34 31 30 30 32 32 33
42 40 38 35 33 32 31 31 30 31 29 31 28 32 34 34 31 28 29 30 31 33
41 38 36 33 32 31 29 29 23 22 26 27 29 28 33 34 30 29 28 28 29 31

GFSNIL_sfc_temp_012.txt.gz
Temp
51 50 50 50 50 47 48 46 47 45 44 45 45 45 45 43 43 43 43 43 42 42
50 49 47 45 45 46 46 47 45 44 44 44 44 44 43 42 43 44 43 42 41 41
47 46 45 44 43 43 44 45 44 44 44 44 43 44 44 43 42 41 41 41 39 40
45 44 43 43 43 43 44 45 44 43 44 44 43 44 43 41 41 40 39 39 39 39
43 43 42 42 43 44 44 44 45 44 44 44 43 43 41 39 40 37 37 37 38 38
42 42 41 41 43 43 44 45 44 44 42 42 41 40 39 38 38 37 38 37 36 36
41 40 41 41 41 42 42 41 41 41 41 40 40 39 39 38 36 33 34 33 32 33
41 41 42 41 40 41 43 43 40 39 37 36 37 39 35 33 31 30 30 31 32 32
42 43 42 42 41 42 41 40 38 36 35 34 38 37 37 35 31 32 31 30 31 31
42 41 40 41 41 39 37 35 34 33 32 31 31 36 37 36 32 30 30 29 29 30
40 40 39 38 37 34 34 33 32 31 31 30 32 35 36 35 31 29 29 30 30 30
39 39 36 34 33 33 31 30 30 31 29 28 28 33 34 33 28 28 29 31 31 31
40 37 34 32 31 31 29 29 29 29 28 29 27 31 33 32 29 26 27 28 30 32
37 36 33 31 30 28 27 27 21 20 23 26 27 26 32 33 29 27 27 28 29 30

GFSNIL_sfc_temp_015.txt.gz
Temp
50 48 48 47 46 45 43 41 41 42 44 44 44 44 43 42 42 42 41 40 41 42
47 47 46 44 42 40 42 43 41 42 43 44 44 44 43 41 41 41 42 41 40 38
48 45 44 41 40 40 41 41 42 43 44 44 43 42 42 41 42 41 39 40 38 37
44 43 41 40 40 40 41 42 43 44 45 43 42 42 41 41 40 39 38 38 38 37
42 41 40 40 41 42 44 45 45 43 43 43 43 42 40 38 39 37 36 36 36 36
40 40 39 39 42 43 43 44 43 42 40 41 40 39 38 37 36 36 35 35 34 34
39 41 39 41 40 41 42 42 41 41 40 39 37 37 37 36 34 32 32 32 32 31
42 42 41 41 41 41 43 43 40 38 36 35 36 37 34 33 32 31 30 31 31 32
42 42 41 40 39 40 40 39 37 36 35 33 36 37 37 35 30 30 30 29 30 31
42 40 39 39 39 37 35 35 34 33 32 31 31 36 36 36 31 29 29 28 28 30
39 39 37 36 35 34 33 32 31 31 31 29 31 34 35 34 30 28 28 29 29 29
39 38 35 32 31 30 30 30 30 30 29 28 28 32 33 32 25 26 26 29 29 29
37 35 32 31 30 31 29 30 29 29 28 28 25 30 32 31 26 25 27 28 30 32
36 34 31 31 30 29 27 26 21 20 22 25 26 24 31 32 29 26 27 27 28 30

GFSNIL_sfc_temp_018.txt.gz
Temp
47 48 48 47 45 42 40 38 40 41 41 41 41 41 42 43 42 42 42 41 39 37
45 46 47 45 41 39 39 41 40 40 40 41 43 44 43 41 41 41 40 39 39 40
45 44 43 41 40 38 39 40 40 40 41 41 43 43 42 41 41 40 40 41 39 39
45 44 41 39 39 38 40 40 41 42 43 43 43 41 39 40 41 40 39 39 37 37
41 40 39 38 39 40 42 43 43 44 43 42 40 40 38 37 37 36 36 36 35 35
41 38 37 38 40 41 41 42 42 42 41 41 40 38 37 37 36 35 34 33 32 33
37 39 40 39 40 40 41 41 41 41 39 38 37 37 36 36 34 32 32 32 32 31
39 41 41 41 40 41 41 41 38 37 36 35 35 37 33 33 32 31 30 31 32 32
42 42 39 39 39 38 39 39 37 35 33 32 35 36 36 35 31 31 31 30 30 31
41 40 40 40 38 36 34 33 32 32 32 31 31 35 36 35 31 30 29 28 28 30
40 39 37 35 34 32 31 31 30 30 30 29 31 34 34 34 29 28 28 28 28 28
35 35 34 32 31 31 30 30 29 30 29 28 28 32 32 32 26 25 26 28 29 29
34 33 30 29 29 30 28 29 29 29 28 28 25 29 31 31 26 23 26 29 30 31
33 31 29 28 28 27 26 26 21 19 22 24 26 23 30 32 28 27 26 27 28 29

GFSNIL_sfc_temp_021.txt.gz
Temp
57 57 57 56 55 54 53 52 50 50 51 50 50 50 50 45 44 42 39 38 37 36
56 54 54 54 53 52 51 50 49 50 50 50 50 47 45 42 41 42 42 41 40 40
54 54 53 51 50 49 49 49 49 50 49 48 49 48 47 46 46 44 43 43 42 43
52 51 50 48 48 48 48 49 48 48 48 46 45 46 47 46 46 46 45 46 45 45
50 49 48 47 48 48 48 47 46 45 42 41 42 46 46 44 44 43 43 44 44 44
47 46 46 45 44 46 44 43 43 42 43 45 44 44 44 43 43 43 43 42 41 41
46 46 44 43 43 44 45 45 46 45 44 43 43 43 43 43 42 41 41 41 40 39
46 46 46 45 46 46 46 45 44 40 41 40 40 41 40 41 40 39 39 39 40 39
43 44 43 42 45 45 44 44 42 41 39 39 40 36 36 37 39 38 36 35 37 38
43 44 44 44 43 41 41 41 40 39 39 38 37 35 35 35 36 35 35 35 35 36
43 43 42 42 41 40 40 39 38 38 37 37 37 34 33 33 35 34 34 35 35 34
41 41 40 39 38 39 38 38 37 37 36 35 34 33 32 32 33 32 32 34 34 34
40 39 38 37 37 37 37 36 35 34 35 33 32 31 31 32 32 30 31 33 35 33
39 37 37 37 37 36 36 33 30 29 30 31 31 30 31 31 30 30 30 31 32 33

GFSNIL_sfc_temp_024.txt.gz
Temp
65 65 64 62 61 60 60 60 60 58 58 57 56 54 52 51 45 42 41 39 39 39
63 61 60 60 59 59 58 59 57 55 55 54 52 52 52 48 47 46 46 46 45 45
61 61 60 58 57 56 57 56 53 51 50 48 46 46 47 46 46 46 47 47 45 45
59 58 58 57 56 55 54 50 48 46 44 42 42 43 45 45 46 46 47 48 47 48
58 57 56 54 54 54 51 48 44 42 43 46 48 47 47 48 48 47 48 48 48 48
56 55 54 52 50 48 48 48 48 49 50 50 49 49 49 49 48 48 47 47 46 46
52 50 49 50 48 50 52 51 51 50 47 47 47 48 48 47 46 46 46 45 45 45
52 47 45 43 46 48 51 51 50 48 49 48 48 48 43 43 44 44 44 44 44 44
49 49 49 49 48 50 50 50 49 48 47 46 47 36 36 37 41 42 42 41 42 43
50 49 49 50 49 48 47 48 46 46 45 44 44 36 35 34 39 40 41 41 41 42
49 48 48 48 47 46 46 45 45 44 44 43 43 36 34 33 38 39 40 40 41 39
48 47 46 46 45 45 45 44 43 43 41 40 40 35 33 33 35 36 36 36 36 37
48 46 45 45 44 44 44 43 41 39 39 37 36 34 32 33 33 30 32 34 36 35
47 46 45 44 44 43 42 39 34 32 34 34 34 33 32 32 30 30 30 32 34 36

GFSNIL_sfc_temp_027.txt.gz
Temp
68 67 65 64 62 61 61 60 61 61 57 54 50 50 50 47 48 47 42 41 42 43
65 64 63 62 61 60 59 60 58 52 47 46 47 47 45 45 45 45 48 46 44 43
64 64 63 61 59 58 58 54 52 47 47 47 45 45 47 44 45 43 43 44 44 45
63 63 62 59 59 57 54 52 51 50 48 47 48 49 49 49 48 47 47 48 47 47
61 61 59 57 52 54 53 53 52 50 50 50 51 51 50 49 49 48 48 48 48 48
59 57 54 53 52 53 52 51 50 50 48 50 51 50 50 49 49 49 48 48 48 47
55 53 52 50 44 48 49 49 49 50 51 51 52 51 51 50 47 46 47 47 46 46
52 52 51 50 49 51 51 52 52 52 51 51 50 50 46 45 43 43 43 45 46 46
51 51 50 51 50 50 50 50 51 50 49 48 50 36 36 37 40 40 41 41 43 45
51 50 50 51 50 49 48 50 48 48 48 47 47 37 36 35 38 38 39 41 41 42
50 49 49 49 48 49 48 47 47 46 46 45 45 36 35 34 37 38 38 39 39 40
50 49 49 48 48 48 47 46 45 45 42 40 40 37 34 34 34 34 35 37 37 37
50 49 49 48 47 47 47 45 44 40 39 36 36 36 35 34 33 30 32 34 36 35
50 49 49 47 47 46 45 43 37 33 36 37 36 35 35 34 32 32 31 31 32 34

GFSNIL_sfc_temp_030.txt.gz
Temp
60 59 58 58 55 53 53 52 50 49 48 47 47 46 46 45 45 45 43 42 42 41
59 58 57 57 55 53 53 54 49 47 46 45 45 46 45 43 42 43 42 41 42 42
58 57 56 55 53 51 50 50 49 47 46 45 44 44 44 45 45 43 41 41 41 42
56 56 55 53 51 50 49 50 48 49 46 47 47 46 44 43 44 42 42 42 43 42
55 55 53 51 51 50 49 50 49 48 47 47 47 47 46 44 44 43 42 43 42 42
54 51 49 49 48 47 46 47 46 47 47 47 47 46 45 45 44 42 41 40 40 41
50 49 48 48 47 46 46 46 46 47 47 47 47 47 45 44 40 39 39 39 39 40
50 49 48 48 48 48 47 47 47 46 45 44 46 43 37 38 37 35 36 36 39 39
51 49 48 47 46 47 46 46 45 44 43 42 47 36 36 35 33 35 34 33 35 38
51 48 47 48 48 46 44 44 42 42 42 40 39 37 36 35 33 32 32 33 34 35
50 48 48 47 46 44 42 40 39 39 39 37 39 37 35 34 31 30 31 31 32 32
50 48 47 45 44 42 40 39 39 39 36 34 33 36 36 33 29 29 29 31 31 32
49 48 46 44 42 41 40 40 36 35 34 35 32 36 36 35 29 25 28 29 31 33
49 47 46 44 42 41 38 35 31 30 31 32 33 31 36 32 27 27 27 27 28 30

GFSNIL_sfc_temp_033.txt.gz
Temp
53 52 51 51 50 48 47 44 44 44 43 43 43 42 41 41 41 40 40 38 42 41
52 51 50 49 47 45 45 49 44 43 43 42 42 41 41 39 39 39 38 38 39 38
50 50 48 46 45 46 45 46 45 44 42 42 42 43 40 39 40 39 38 38 37 37
49 49 48 48 46 45 45 44 44 45 46 45 45 45 42 41 41 40 39 39 39 39
49 47 45 45 44 43 42 43 44 46 45 45 44 44 43 41 41 39 36 36 36 37
47 45 44 43 44 43 42 42 42 43 43 43 42 42 41 39 38 36 36 36 36 35
44 45 44 43 43 42 43 42 41 43 43 42 41 39 38 38 34 33 34 34 34 34
44 44 44 43 43 43 43 43 42 41 41 40 39 38 33 33 31 30 31 32 34 34
45 44 43 42 42 42 42 42 41 40 38 35 39 36 36 33 29 30 30 29 31 31
46 46 43 44 43 41 39 38 38 37 35 34 33 36 36 35 30 29 28 27 28 30
44 45 45 43 42 40 38 36 37 34 33 32 36 37 37 35 29 27 28 28 28 28
44 43 42 41 39 39 38 35 34 33 32 30 30 35 35 34 27 27 27 29 29 29
42 42 38 39 39 38 36 34 32 31 31 33 29 34 36 31 22 22 26 26 28 30
40 41 41 40 38 38 32 30 28 26 29 30 30 29 34 32 27 25 25 25 25 27

GFSNIL_sfc_temp_036.txt.gz
Temp
50 49 49 47 46 45 44 44 44 43 42 42 42 42 40 38 38 38 36 36 37 38
49 48 46 45 45 44 44 47 43 42 42 41 41 41 40 38 37 37 37 36 36 36
48 47 45 44 44 43 43 43 42 42 41 40 44 44 40 39 39 38 38 39 37 36
47 46 45 44 42 42 42 42 41 42 42 43 41 42 41 40 40 39 37 35 35 35
46 45 43 43 42 42 42 42 41 42 42 42 41 40 39 37 36 35 34 34 34 35
45 43 42 42 42 42 42 41 40 41 40 40 40 37 36 35 34 33 33 33 33 33
44 42 41 41 41 41 41 40 40 40 40 39 37 36 35 34 31 31 32 31 31 30
43 42 43 41 41 42 43 43 42 40 38 37 36 36 32 32 30 29 29 30 30 31
44 44 41 42 40 42 42 41 40 37 36 35 38 36 36 33 29 30 29 27 29 29
44 42 41 41 40 39 37 38 38 36 34 32 32 36 37 36 31 28 27 26 27 29
41 40 40 38 38 36 36 36 36 32 32 31 34 36 36 35 29 27 27 27 27 27
40 39 38 38 36 36 35 35 32 32 30 29 29 34 35 29 25 26 25 28 28 28
40 38 37 35 35 35 34 33 31 31 30 32 27 33 34 31 23 17 24 25 27 29
38 37 40 37 35 32 31 29 28 25 27 28 28 27 32 31 22 22 24 24 24 25

GFSNIL_sfc_temp_039.txt.gz
Temp
49 47 46 45 44 43 43 43 43 42 41 41 41 40 40 37 37 37 36 35 36 36
47 47 45 45 43 42 42 44 42 41 40 40 40 40 40 37 36 36 36 36 37 37
46 46 45 43 42 42 42 42 41 40 39 39 39 39 39 37 37 36 35 36 35 34
45 45 43 42 42 41 41 40 40 40 40 40 39 39 37 37 36 34 33 32 32 33
45 44 42 41 41 41 40 41 40 40 40 40 39 38 36 35 34 32 31 31 31 32
43 42 41 41 41 41 40 41 40 41 40 39 40 37 34 34 32 31 32 31 30 30
42 41 40 40 39 39 40 39 40 39 40 40 37 36 35 34 31 30 31 31 30 29
41 41 40 39 39 39 39 39 39 40 39 37 36 36 32 32 30 29 29 30 30 30
42 41 39 38 38 37 36 37 39 36 37 36 37 36 36 34 29 30 30 27 29 29
41 40 39 39 37 35 35 35 35 36 36 33 32 36 37 36 31 28 27 26 27 28
39 38 38 37 35 33 33 32 32 32 32 31 33 35 35 32 26 25 26 27 27 26
38 37 36 37 38 37 36 34 31 31 31 30 28 34 34 29 25 25 25 27 27 27
37 36 35 36 36 33 31 31 31 31 30 32 27 32 33 30 21 14 23 25 26 27
36 35 35 34 32 30 30 31 28 26 27 28 28 25 31 31 20 21 23 23 23 25

GFSNIL_sfc_temp_042.txt.gz
Temp
48 47 46 45 44 43 42 42 42 41 41 40 40 39 38 37 36 36 36 35 35 35
47 46 45 44 42 41 41 44 42 41 39 39 39 39 38 37 36 36 35 35 34 34
46 45 44 42 42 41 41 41 40 39 39 39 39 38 38 37 36 35 35 34 32 32
44 43 42 41 41 40 40 39 39 39 39 39 38 38 38 37 36 34 34 32 32 33
43 42 41 40 40 40 39 39 39 40 39 39 39 39 38 36 35 33 33 32 31 31
41 40 39 39 39 39 39 38 38 38 37 38 39 37 36 35 33 32 32 31 30 30
39 39 39 38 38 38 38 37 37 37 37 39 38 36 36 34 32 31 31 31 30 30
39 39 39 39 38 37 37 36 36 36 37 36 37 37 34 32 31 30 29 30 31 31
39 39 38 37 37 36 35 35 37 36 34 34 38 37 37 35 30 30 29 28 29 29
39 38 37 37 36 34 33 34 32 32 33 32 31 36 36 34 29 27 27 27 27 28
37 36 36 35 35 34 35 35 34 31 30 30 32 35 33 32 27 26 26 27 26 26
36 35 35 34 34 34 35 34 32 30 30 30 28 33 33 30 25 25 25 27 27 27
36 34 33 33 34 32 30 30 30 31 31 32 27 31 32 30 21 14 23 25 27 27
37 34 33 32 32 30 29 30 28 26 28 28 28 25 31 31 21 22 23 24 24 26

GFSNIL_sfc_temp_045.txt.gz
Temp
59 61 60 58 58 57 57 57 56 54 53 52 51 50 50 49 49 48 47 47 47 46
58 57 57 56 55 55 55 55 53 52 51 51 51 50 50 49 48 47 47 46 45 45
55 55 54 54 53 53 53 52 52 51 51 51 50 50 49 48 48 46 45 45 44 44
54 53 53 53 52 52 51 52 50 50 50 50 49 49 47 47 46 44 43 44 43 42
53 52 52 52 52 51 51 51 50 49 48 48 48 47 45 44 45 43 41 42 41 41
52 51 51 50 50 51 49 49 48 47 46 46 45 42 41 43 41 41 41 41 40 39
50 49 49 49 49 48 47 46 46 45 45 43 40 38 39 42 41 40 40 39 39 39
49 49 49 48 47 47 45 45 45 43 41 37 39 41 41 41 40 39 39 39 38 38
48 48 47 46 45 44 44 43 43 41 39 41 43 37 37 38 39 38 37 36 36 37
46 45 45 45 45 44 43 42 41 41 41 40 40 36 36 33 38 36 35 35 34 34
45 43 44 43 43 43 42 42 42 41 39 39 39 35 34 32 36 35 34 34 34 33
43 43 42 42 41 42 40 39 39 38 38 38 37 34 33 33 34 33 32 33 33 32
43 41 40 40 40 41 41 39 39 37 37 34 35 32 33 33 32 29 31 32 33 30
41 40 41 40 40 40 38 37 33 32 35 35 34 33 31 32 31 30 29 30 30 31

GFSNIL_sfc_temp_048.txt.gz
Temp
66 69 67 65 64 64 64 63 63 62 61 60 59 58 57 56 55 54 53 52 51 51
64 63 63 63 63 63 62 62 61 60 59 59 58 57 56 55 53 53 52 50 50 50
63 63 62 61 60 60 60 60 59 59 59 58 58 57 55 54 54 52 51 52 50 50
63 62 61 60 59 59 59 59 58 58 57 57 56 55 53 52 52 48 50 50 49 48
61 60 60 59 59 58 57 57 56 56 55 55 54 53 50 48 47 46 47 48 48 47
60 59 58 58 57 57 55 55 55 54 53 52 51 49 47 45 43 45 47 47 46 46
58 57 57 56 55 54 54 53 53 52 50 45 44 43 41 44 45 46 46 46 45 45
56 56 56 54 53 53 52 52 51 49 47 46 46 47 45 46 46 46 45 45 45 44
55 54 53 52 51 52 52 51 50 49 48 47 48 36 37 37 46 45 44 42 43 43
53 52 52 52 51 50 50 48 46 45 46 45 46 37 35 35 43 43 42 41 41 41
51 50 51 50 50 50 47 46 42 41 43 45 45 35 34 33 42 42 41 41 40 39
49 49 49 49 48 48 44 45 45 41 42 43 43 35 34 34 40 39 38 39 40 38
49 48 47 47 47 47 45 44 45 44 44 39 41 34 33 34 37 32 35 38 39 35
48 46 45 42 44 46 45 40 37 35 39 41 40 38 33 33 34 33 33 34 36 37

GFSNIL_sfc_temp_051.txt.gz
Temp
67 69 68 67 66 65 65 65 65 63 63 62 62 61 60 56 55 55 53 52 51 51
66 63 63 65 65 64 64 64 63 62 61 61 60 60 59 55 55 53 52 52 50 51
61 65 65 64 63 62 62 62 61 60 59 59 59 59 58 55 55 52 51 52 51 51
64 65 64 63 62 61 61 60 59 58 58 57 57 57 56 53 52 51 50 51 49 49
64 64 63 62 61 61 59 59 58 57 57 56 56 56 53 51 52 49 46 47 47 46
63 62 61 61 60 59 58 57 56 56 55 55 53 50 49 48 48 46 46 46 46 45
61 60 60 59 58 57 57 55 55 55 54 49 47 49 48 46 45 45 46 46 46 46
60 59 58 57 57 56 55 55 56 54 51 49 48 48 47 47 46 46 46 47 47 47
58 56 56 56 55 55 55 55 54 50 48 47 48 37 38 38 45 46 45 44 45 45
55 54 54 55 55 54 53 53 50 47 47 45 46 38 37 36 43 44 44 44 43 43
54 53 54 53 53 53 53 51 48 46 46 42 42 37 36 35 41 44 44 43 42 41
53 52 52 51 51 51 51 49 46 46 45 44 40 36 35 35 40 41 40 40 42 41
52 51 50 50 48 48 49 49 46 44 44 38 42 36 35 35 38 35 35 39 40 35
52 51 50 49 48 47 47 45 40 36 40 41 40 39 35 34 35 34 34 35 37 38

GFSNIL_sfc_temp_054.txt.gz
Temp
63 61 60 59 59 57 56 56 57 55 54 54 53 52 51 50 48 47 44 45 44 43
60 59 59 59 58 56 56 59 54 53 53 52 52 51 50 48 48 46 44 43 44 43
58 59 59 58 57 56 55 55 53 52 51 51 51 50 49 47 47 45 44 45 43 42
57 59 59 57 56 55 54 54 53 52 51 51 50 50 48 47 47 45 44 42 42 42
58 59 57 56 56 55 53 53 52 52 51 51 50 48 46 44 44 43 41 41 42 41
58 57 55 55 55 54 52 52 51 51 49 49 46 44 44 43 43 41 42 43 41 41
56 55 54 53 53 52 52 50 50 50 50 47 45 45 45 46 43 40 41 41 41 41
55 55 54 52 52 52 51 51 50 49 47 46 45 47 42 43 40 41 40 42 43 41
54 53 51 51 50 50 50 50 49 47 45 43 47 39 39 38 38 40 39 37 38 38
53 52 50 51 51 49 47 47 46 44 43 42 42 39 37 37 37 36 36 35 35 37
52 50 50 50 49 48 47 45 44 41 42 40 41 36 35 36 35 34 35 35 35 34
50 49 49 48 46 45 44 44 42 42 40 39 35 35 36 35 32 33 32 34 34 35
50 49 48 46 45 44 42 43 41 39 38 38 36 36 36 34 29 28 30 32 33 32
50 48 47 46 45 43 42 40 35 33 34 35 35 34 36 36 30 28 29 30 29 29

GFSNIL_sfc_temp_057.txt.gz
Temp
55 53 56 57 55 53 52 52 50 49 49 48 48 47 46 44 43 43 41 41 41 40
54 56 56 56 55 54 51 54 49 48 47 47 47 46 45 43 43 42 41 41 41 41
56 57 56 55 54 52 49 50 48 47 47 46 46 46 43 41 42 40 39 40 39 40
56 57 57 55 51 50 49 49 48 48 47 47 45 43 42 41 41 40 39 38 38 38
56 56 55 53 50 48 48 48 48 48 47 47 44 43 41 40 40 38 37 37 38 40
54 54 51 48 48 48 48 47 47 48 47 46 43 42 41 41 40 39 38 38 37 37
52 51 49 49 49 48 48 48 47 47 46 44 42 42 42 42 39 38 38 38 38 38
49 48 48 47 47 48 48 48 47 46 44 43 43 44 40 40 40 37 36 37 39 38
49 48 47 47 47 47 47 46 45 43 42 41 44 40 39 37 35 37 36 34 34 35
49 47 47 49 48 46 45 43 41 41 41 39 39 39 37 36 33 35 35 32 31 34
49 48 48 46 45 44 42 41 39 39 39 37 39 38 36 36 32 31 32 31 31 30
48 46 46 44 42 41 40 39 38 38 36 35 33 36 35 34 29 30 30 32 31 31
46 45 44 42 41 41 40 40 38 37 35 36 33 35 36 34 27 25 28 29 30 32
46 45 44 39 39 39 37 36 32 31 31 32 32 32 36 36 29 27 28 28 27 27

GFSNIL_sfc_temp_060.txt.gz
Temp
53 52 53 54 54 52 52 50 49 48 46 46 45 44 43 41 40 40 39 39 39 39
54 55 52 54 54 52 52 51 48 46 45 45 45 43 43 39 39 39 38 37 37 37
55 55 54 52 53 51 51 50 47 45 45 45 43 43 42 39 39 39 37 39 37 37
54 54 54 53 50 51 49 47 46 46 46 45 44 43 41 40 39 38 37 37 37 38
55 54 53 52 50 49 47 46 46 46 46 46 44 42 41 40 40 39 37 37 36 37
53 52 50 49 48 47 46 45 45 46 46 45 43 41 40 40 40 38 37 37 36 36
50 49 48 47 45 46 46 45 47 46 45 44 41 41 41 41 38 37 37 37 36 36
47 48 46 45 44 45 47 46 45 44 43 42 41 42 39 39 37 35 35 35 37 37
46 45 46 44 47 46 46 45 43 42 40 39 42 42 40 38 34 34 34 34 34 35
45 45 45 48 46 45 43 42 41 40 39 38 38 39 39 37 32 31 31 31 31 33
46 47 46 45 44 42 41 40 39 38 37 36 37 39 38 36 30 30 31 30 31 30
46 44 44 42 41 40 39 38 38 38 36 35 33 36 36 34 30 30 30 32 31 30
45 44 42 40 39 38 36 37 36 35 34 35 33 35 36 35 27 29 29 30 30 33
45 43 42 39 37 35 33 31 30 30 30 31 32 31 36 36 29 30 29 29 28 28

GFSNIL_sfc_temp_063.txt.gz
Temp
52 50 50 51 49 50 51 49 48 48 49 47 45 43 41 39 39 38 37 37 37 37
54 54 53 53 52 48 49 50 48 48 45 44 43 42 40 38 38 38 38 37 36 36
54 54 54 52 50 50 49 49 48 46 45 44 42 41 42 39 38 38 36 37 36 35
53 53 52 51 50 48 48 48 47 45 44 43 43 42 40 39 39 38 36 36 35 36
51 50 48 48 47 49 45 47 45 44 44 44 43 41 39 38 39 37 36 36 35 36
51 47 49 49 47 45 46 45 44 44 43 43 42 41 39 39 38 38 36 36 35 35
49 49 47 45 46 45 45 44 44 43 43 42 42 40 40 40 38 36 36 35 35 34
47 47 44 45 43 43 46 44 43 42 42 41 41 41 39 38 36 35 34 33 35 35
44 45 45 45 44 44 43 42 41 40 40 39 41 40 40 38 34 34 33 31 32 35
46 46 45 46 45 42 40 40 39 38 38 37 36 39 40 39 33 32 31 30 30 31
44 45 45 44 42 40 39 38 37 36 36 35 36 38 39 38 32 30 30 33 31 30
45 44 43 41 39 38 37 36 35 35 34 33 33 36 37 36 30 29 29 32 31 31
45 42 41 40 38 36 35 35 33 32 32 33 31 35 36 35 30 29 29 29 31 33
44 42 40 38 36 35 33 31 30 30 30 29 31 31 35 36 34 30 28 29 29 29

GFSNIL_sfc_temp_066.txt.gz
Temp
52 51 50 49 48 48 48 49 49 48 48 47 47 43 43 40 39 38 38 38 37 38
50 50 50 51 52 50 47 50 48 46 45 46 46 44 40 39 39 38 37 37 38 37
50 52 54 51 49 49 48 48 46 45 46 46 44 42 39 38 38 38 37 37 36 36
52 50 50 49 49 49 48 46 46 46 45 45 41 42 40 39 39 38 37 37 36 36
49 50 49 48 48 47 46 46 44 44 45 44 42 41 40 39 40 37 37 37 35 35
50 49 46 47 46 46 43 44 45 45 45 43 42 41 39 38 38 37 37 36 35 34
49 48 47 46 45 43 45 45 45 44 43 42 41 40 40 39 37 36 36 35 34 34
46 46 46 45 45 45 46 45 44 42 41 40 40 41 38 37 36 34 34 34 34 34
46 46 45 43 44 45 45 43 41 39 39 39 40 40 39 38 34 34 34 32 32 32
45 45 43 45 45 43 42 41 39 38 37 36 36 38 39 39 34 33 32 31 31 32
44 44 44 44 43 41 40 39 37 36 35 34 35 38 38 38 34 32 31 30 30 30
45 44 43 41 40 39 37 36 35 34 33 32 32 36 36 35 31 30 30 31 30 30
44 43 41 40 39 36 34 34 33 32 32 34 32 34 36 35 29 32 32 32 30 33
43 41 41 38 35 34 32 32 30 30 30 31 31 31 35 36 31 32 32 31 29 30

GFSNIL_sfc_temp_072.txt.gz
Temp
69 68 67 64 67 68 68 68 68 66 66 64 49 48 50 57 61 61 59 58 58 59
67 66 66 65 69 69 70 69 65 64 60 51 48 49 54 59 60 59 58 57 57 57
68 68 64 66 68 68 68 65 62 57 51 47 48 55 59 60 60 58 58 58 57 56
66 64 63 64 64 64 62 59 55 50 49 56 58 60 59 59 59 57 57 57 56 55
61 59 56 56 57 57 53 52 50 51 56 58 61 60 59 58 59 57 56 56 55 54
55 55 54 52 52 50 50 52 51 55 58 59 59 59 59 58 57 56 56 55 55 54
54 53 51 49 47 46 47 48 50 53 57 57 59 59 58 57 56 56 56 55 54 54
53 50 46 45 45 49 52 49 50 57 58 58 57 58 57 56 55 54 54 54 54 53
49 46 44 43 48 47 47 52 58 57 57 56 57 44 41 43 52 53 53 52 53 54
47 46 49 50 50 49 53 57 56 55 55 54 55 42 40 39 50 51 52 52 52 52
50 47 49 54 52 52 56 54 55 54 54 53 54 42 39 38 48 50 51 51 51 50
49 50 54 49 52 55 55 54 54 54 53 52 52 41 39 39 48 48 48 50 50 50
55 47 52 54 53 55 54 52 53 52 52 47 49 43 39 40 44 41 43 46 46 42
53 54 53 52 53 53 52 50 47 43 45 46 46 45 39 38 41 40 40 40 41 41

GFSNIL_sfc_temp_075.txt.gz
Temp
74 72 70 69 68 65 65 69 70 68 68 67 65 60 57 55 53 56 58 59 59 60
71 70 70 70 69 66 65 69 67 68 66 64 60 53 51 50 55 60 60 59 59 58
70 70 68 68 66 63 62 65 66 64 62 55 49 48 49 55 61 61 60 60 58 58
66 69 65 64 60 59 61 63 61 53 50 49 50 51 55 60 60 60 59 59 58 57
65 59 57 56 56 56 54 53 50 50 52 52 54 57 57 58 60 59 58 58 57 57
56 55 55 54 53 52 50 50 52 51 49 51 54 58 61 60 59 59 58 58 57 56
56 54 52 52 52 51 49 48 47 48 49 50 57 60 61 60 59 58 58 57 57 56
53 52 54 52 50 48 47 47 52 50 50 56 60 61 59 59 57 56 55 56 57 56
52 51 48 46 47 48 50 50 50 52 59 58 59 43 45 45 52 53 53 53 54 56
50 48 47 48 48 49 52 53 55 58 57 56 57 44 42 40 50 51 51 52 52 52
51 51 53 54 55 55 56 56 57 56 56 55 56 43 41 39 49 50 50 51 51 51
56 54 52 52 54 55 56 55 55 56 55 54 54 41 39 40 48 47 47 49 49 49
54 56 56 54 55 56 56 55 56 54 53 47 50 39 39 41 43 41 42 44 45 41
57 55 55 56 55 55 54 52 49 45 46 47 46 45 39 38 40 39 38 39 40 42

GFSNIL_sfc_temp_078.txt.gz
Temp
70 70 68 66 62 62 62 61 62 62 62 61 59 54 53 52 52 52 51 53 51 51
70 69 67 63 63 64 63 63 62 62 60 57 55 53 52 49 50 49 49 51 52 51
68 69 67 64 64 63 61 61 60 59 55 52 51 49 49 48 49 48 51 53 52 50
68 66 64 63 61 59 57 55 51 51 50 49 49 49 47 48 49 52 53 53 51 50
64 63 61 57 56 54 52 52 50 50 50 50 51 51 49 49 52 52 52 52 51 51
59 58 56 55 54 53 51 51 51 51 50 50 49 49 49 52 52 53 52 51 49 49
56 55 53 52 51 51 51 51 50 50 49 49 49 51 53 55 53 51 51 50 49 49
51 51 51 50 50 50 50 49 48 48 48 49 51 54 52 53 49 47 47 48 50 49
51 50 50 49 48 47 47 47 48 49 49 49 53 41 44 46 46 47 46 44 46 47
49 47 46 47 48 47 46 47 47 48 49 51 51 42 42 42 45 44 43 42 43 45
48 47 47 48 48 47 49 49 49 50 52 50 50 42 41 39 42 42 42 42 42 42
49 49 49 50 51 51 51 51 50 50 49 48 42 39 38 40 40 40 38 42 41 40
53 52 51 51 51 52 52 52 51 49 45 43 39 38 38 39 33 33 32 35 38 37
53 53 53 52 51 51 49 45 38 36 38 41 40 37 37 36 32 30 30 30 31 32

GFSNIL_sfc_temp_081.txt.gz
Temp
63 65 63 63 61 60 59 58 57 58 57 58 57 56 54 52 51 51 49 51 51 51
65 63 63 62 61 59 59 58 57 59 58 55 54 53 51 49 49 49 49 49 49 49
65 64 61 60 60 59 59 59 57 55 53 51 50 49 48 47 48 49 48 49 48 49
64 62 60 60 59 59 58 56 54 51 49 50 51 49 48 48 48 48 47 49 48 48
63 62 60 61 59 56 53 52 51 51 52 51 49 49 49 48 49 48 48 49 49 48
61 60 58 56 55 54 52 51 52 51 50 50 51 50 49 49 49 49 50 49 47 47
56 56 55 53 52 52 52 50 51 51 51 50 50 50 50 50 49 48 47 47 46 46
53 53 52 51 51 51 51 50 50 49 49 49 49 50 49 51 47 44 44 44 46 45
51 51 50 50 49 49 48 48 49 49 49 47 52 46 44 44 42 44 43 41 41 42
49 48 47 47 47 47 47 47 47 48 48 47 47 41 42 41 42 41 40 38 38 40
47 46 47 47 47 46 47 47 47 47 47 46 45 40 39 40 39 38 38 38 37 36
47 46 47 46 46 47 47 47 47 48 46 41 39 38 38 38 36 36 34 37 36 36
48 48 47 48 48 49 49 49 46 44 40 38 35 37 38 36 31 31 30 32 33 34
51 51 50 50 50 48 44 40 34 35 36 35 34 34 36 35 30 29 29 29 29 29

GFSNIL_sfc_temp_084.txt.gz
Temp
63 62 63 62 61 60 60 60 61 59 57 56 56 56 54 51 50 49 48 47 47 47
63 62 63 61 61 61 61 61 57 58 56 54 54 52 51 49 48 48 47 47 47 48
64 63 63 61 60 60 59 58 56 56 54 51 50 50 50 49 48 49 47 48 47 48
65 63 62 61 60 60 58 57 56 54 52 51 51 51 51 50 48 48 48 49 48 48
63 62 61 60 59 57 56 56 54 53 52 52 52 51 50 48 49 48 48 48 47 48
61 60 59 59 58 57 55 53 53 52 52 51 50 50 50 50 49 48 48 48 48 48
60 60 59 57 58 56 54 52 52 53 52 51 51 51 50 49 48 48 48 48 47 45
56 57 56 55 54 53 52 52 52 51 51 51 51 51 49 49 47 46 44 44 43 42
51 52 52 51 50 50 50 50 50 49 49 48 50 42 43 45 44 44 43 40 40 42
50 49 48 49 48 48 48 48 48 48 48 47 47 41 41 40 42 41 39 37 38 40
48 47 47 47 47 47 47 47 47 46 46 46 44 39 39 38 37 36 38 37 35 34
48 47 47 46 46 46 47 46 45 46 44 41 39 38 38 38 37 35 33 35 34 33
48 47 46 46 46 47 47 46 44 42 40 38 37 37 37 36 32 30 30 32 33 33
49 48 48 47 47 46 43 40 37 35 36 36 36 36 36 35 30 30 29 30 30 30

GFSNIL_sfc_temp_087.txt.gz
Temp
58 59 59 59 59 59 59 60 59 58 59 57 55 54 53 52 51 51 49 48 48 47
58 59 60 59 60 60 61 61 60 58 58 56 55 54 52 50 50 50 49 48 47 48
60 60 61 61 60 60 61 60 58 56 56 54 53 52 51 50 50 50 49 48 47 48
61 61 61 61 61 60 60 57 56 56 55 53 52 51 52 51 50 50 48 48 48 48
62 62 61 60 61 59 57 57 56 55 54 52 52 52 51 50 50 50 48 48 48 48
61 61 60 60 58 57 57 56 55 54 54 52 52 51 52 51 50 49 49 48 48 47
61 60 61 60 57 57 56 57 55 54 54 53 52 52 51 51 49 49 49 48 47 47
61 59 57 57 57 58 58 57 55 54 53 53 52 51 50 50 49 48 45 45 45 44
54 55 55 55 55 52 52 52 53 52 51 50 51 43 43 46 46 45 42 40 40 41
52 50 50 51 51 50 50 50 50 50 49 49 48 44 42 40 43 41 39 38 38 40
50 49 49 49 49 48 48 48 48 47 48 46 45 40 39 37 38 37 38 37 37 35
48 48 47 46 46 46 46 46 46 46 44 42 39 37 37 38 37 36 35 35 35 34
48 47 46 46 46 46 46 44 42 39 39 37 36 36 37 36 34 32 31 32 32 33
48 47 47 46 46 43 41 38 35 33 34 34 34 34 35 35 32 31 30 30 29 30

GFSNIL_sfc_temp_090.txt.gz
Temp
55 55 56 56 57 57 58 58 57 56 57 57 57 56 55 55 54 53 52 51 49 49
54 55 56 55 55 57 56 58 56 56 57 57 57 56 54 54 52 51 51 50 50 50
55 55 56 55 55 57 57 56 57 56 57 56 54 53 53 52 52 51 51 51 50 50
56 56 56 56 57 57 57 58 57 58 57 55 53 52 52 51 51 51 50 51 50 50
57 57 57 57 58 58 58 58 58 57 56 56 54 52 52 52 52 50 50 50 50 50
58 58 57 58 59 59 59 58 57 57 57 57 55 54 53 54 53 51 52 51 50 49
58 58 59 59 59 59 58 59 57 56 56 56 55 54 53 52 52 51 51 50 49 49
58 58 56 57 57 57 58 58 58 57 56 54 54 53 52 51 51 49 48 47 46 45
57 56 55 56 56 57 57 56 57 54 53 52 52 46 44 48 49 48 45 42 40 40
53 53 54 54 54 54 54 53 52 52 52 52 51 43 43 42 46 45 41 38 37 38
51 51 51 51 51 50 49 49 48 47 47 45 42 39 39 39 39 37 37 37 36 34
50 49 48 48 46 47 46 46 44 44 42 40 37 37 37 37 36 34 33 34 34 34
48 47 46 46 46 46 44 42 40 37 37 36 35 36 36 36 34 31 30 30 30 30
48 46 46 44 43 41 37 35 33 31 32 32 33 34 34 34 32 31 30 28 28 30

GFSNIL_sfc_temp_093.txt.gz
Temp
62 63 64 65 66 65 66 66 66 65 66 66 66 65 64 63 62 61 57 55 54 56
61 62 63 64 64 64 65 66 65 66 65 66 65 65 64 63 63 62 60 58 56 57
61 62 63 62 62 63 64 65 65 65 65 65 65 64 63 62 63 59 59 57 54 55
61 61 62 62 62 63 64 65 64 65 65 64 64 62 60 59 59 54 54 53 53 52
61 60 61 61 62 63 63 64 64 64 65 64 62 58 55 54 55 53 53 52 51 51
60 60 59 61 62 63 63 64 64 64 63 62 59 56 58 57 56 54 54 54 52 52
62 62 62 62 62 62 63 64 64 64 63 62 61 59 58 57 55 54 55 56 54 53
63 63 63 63 63 63 64 64 64 63 61 60 59 57 56 55 55 55 53 52 52 51
62 62 62 62 62 63 63 63 62 60 58 58 56 48 45 49 52 53 51 48 42 42
62 62 62 62 62 62 62 61 58 57 56 54 52 44 43 41 47 45 41 39 39 38
58 56 56 57 57 54 51 50 48 47 46 42 39 38 39 38 40 38 37 37 36 35
53 51 50 49 48 48 46 43 42 41 39 37 36 36 37 37 35 33 32 33 33 33
49 48 47 46 44 42 40 38 37 35 35 35 35 35 35 35 33 31 30 30 30 30
46 44 44 42 41 39 36 34 33 31 32 33 33 34 34 34 32 31 30 29 28 28

GFSNIL_sfc_temp_096.txt.gz
Temp
69 65 67 69 70 68 69 70 71 70 70 67 67 70 70 70 70 70 68 67 67 65
68 67 68 70 70 71 71 72 71 71 71 72 72 71 71 70 70 70 68 68 66 63
68 69 70 70 70 70 72 72 72 71 71 71 71 71 70 70 71 69 69 69 67 66
68 69 69 69 70 70 70 71 70 70 70 70 71 71 70 70 70 68 68 68 65 63
69 69 68 68 69 70 70 70 70 70 70 71 72 72 71 68 68 65 65 60 58 56
68 68 68 67 67 69 69 69 70 70 69 70 70 70 70 67 62 60 61 61 58 56
68 68 68 68 68 68 68 68 69 69 70 69 70 71 70 66 63 65 65 62 56 56
69 69 69 68 67 68 68 68 69 70 70 70 70 69 68 64 61 58 57 56 54 55
70 70 69 68 68 68 69 70 70 70 69 67 62 49 46 50 56 53 51 51 43 42
70 69 69 69 68 67 65 65 63 61 58 48 43 39 43 41 46 43 40 39 39 37
69 68 69 68 66 60 53 50 47 44 42 39 38 37 38 38 38 36 35 35 35 34
63 58 53 49 49 47 43 40 38 38 38 36 35 36 36 37 34 32 31 33 33 32
49 47 45 43 40 40 38 36 36 34 35 35 35 35 36 36 34 31 31 31 31 31
44 42 41 39 38 37 34 33 32 31 32 33 34 34 34 35 33 32 31 30 29 30

GFSNIL_sfc_temp_099.txt.gz
Temp
66 66 62 65 65 63 65 68 64 64 65 66 67 66 68 69 68 68 66 67 68 69
68 68 67 64 65 67 69 70 68 68 68 69 67 68 66 69 69 68 68 67 67 67
70 70 70 70 69 69 70 71 71 69 69 70 70 70 70 70 70 68 67 67 67 68
70 71 71 71 71 71 72 72 72 71 71 71 71 71 71 70 70 69 69 70 69 69
70 70 70 70 71 72 72 72 72 72 72 72 72 72 71 70 71 70 69 69 69 68
70 70 70 70 71 71 71 71 72 72 71 71 71 72 72 72 71 71 70 70 68 65
71 71 72 72 72 71 72 71 71 72 72 72 72 73 73 73 72 70 70 66 63 62
72 72 72 71 71 71 70 71 72 71 71 71 72 72 71 70 66 64 62 61 53 42
72 72 71 71 70 70 70 71 70 70 70 68 55 39 41 48 53 47 45 43 39 39
73 72 71 71 70 69 67 66 53 48 45 41 41 39 39 39 40 38 37 36 36 35
73 73 72 69 57 49 46 43 41 39 38 37 37 36 36 36 35 34 33 33 34 34
73 61 53 47 43 41 39 37 36 37 36 35 35 35 35 35 33 32 31 33 33 33
49 46 42 40 37 37 36 35 35 34 35 35 34 35 36 36 34 32 31 32 32 31
42 40 39 37 36 35 33 33 31 31 32 33 33 33 34 35 34 34 33 33 32 31

GFSNIL_sfc_temp_102.txt.gz
Temp
61 61 60 60 60 60 60 60 62 61 62 63 64 63 63 63 62 61 60 60 60 60
62 63 62 62 62 61 61 62 61 62 62 61 62 62 61 62 61 61 60 59 60 61
64 64 63 63 62 63 63 64 62 62 62 62 63 63 62 62 62 61 60 60 60 60
64 65 64 63 63 64 65 65 64 63 63 64 64 64 62 62 62 62 62 62 61 61
65 65 65 64 64 65 65 65 65 65 65 65 65 64 63 62 64 62 61 61 61 61
65 66 64 64 65 66 65 65 66 66 65 65 65 65 64 64 63 63 63 62 61 61
65 65 66 65 65 65 66 65 65 65 65 65 65 66 66 66 64 64 63 60 48 43
66 67 67 66 66 66 66 66 66 66 66 66 66 59 52 59 60 52 46 42 41 39
68 68 66 66 66 65 65 66 65 63 54 48 45 39 41 47 44 43 41 38 37 37
69 68 66 67 66 64 59 50 45 42 41 38 38 37 38 39 38 36 36 35 35 35
69 68 68 61 47 44 42 39 38 37 37 36 35 36 36 35 35 33 33 33 33 32
69 52 47 42 40 39 37 36 35 35 35 34 34 35 35 35 33 31 30 31 32 32
46 43 39 38 37 36 35 34 34 33 33 34 33 35 35 35 33 31 31 31 31 32
40 38 38 37 35 34 33 32 31 31 31 31 32 33 35 35 34 33 32 31 30 31

GFSNIL_sfc_temp_105.txt.gz
Temp
58 58 60 58 59 59 59 59 59 59 60 59 59 59 59 59 59 59 59 58 58 58
58 58 59 60 60 60 60 60 58 58 59 59 59 60 60 60 59 60 59 59 59 59
59 61 61 60 60 60 60 61 59 59 60 60 60 61 61 61 61 60 60 60 60 59
59 60 60 61 60 60 60 61 60 61 61 61 60 61 61 61 61 59 59 58 58 58
60 60 59 59 60 61 61 61 61 62 61 61 62 61 60 58 61 59 58 58 58 58
61 60 59 59 60 60 61 61 62 61 61 61 61 61 60 60 60 59 59 59 57 53
60 60 61 60 60 60 61 61 61 62 61 61 62 62 62 62 61 60 51 47 44 42
60 59 60 59 59 61 61 61 62 60 62 62 60 54 55 58 54 47 42 40 40 39
61 62 60 60 59 58 59 61 57 48 48 44 43 39 42 45 43 41 39 37 37 37
62 62 61 61 61 60 50 45 42 40 39 37 37 38 38 38 38 36 36 35 34 34
63 63 61 54 46 43 41 39 37 36 36 35 35 36 36 36 35 33 33 32 32 31
64 48 45 41 39 38 37 35 35 35 34 34 34 35 35 34 32 31 30 31 31 31
45 42 39 37 36 35 35 33 34 33 34 34 34 35 35 34 33 30 29 30 31 33
40 38 37 36 35 34 32 31 31 30 31 31 33 33 35 35 33 31 30 30 30 31

GFSNIL_sfc_temp_108.txt.gz
Temp
57 59 59 60 60 60 60 60 59 60 60 60 60 60 59 58 57 57 57 57 56 57
58 57 59 59 60 59 60 60 59 59 59 59 59 59 58 58 57 57 57 58 58 58
57 57 57 58 58 59 59 59 58 59 59 58 58 58 58 57 58 57 58 59 58 57
57 58 58 59 59 58 59 58 58 58 57 58 58 58 58 58 59 58 59 59 59 59
57 58 59 59 59 58 58 59 59 59 57 58 59 58 59 59 60 58 58 58 57 57
57 56 57 58 58 58 58 58 59 59 59 59 59 59 59 59 59 57 58 58 56 54
56 56 57 57 58 58 58 58 58 59 60 60 59 60 59 58 56 56 50 45 42 41
58 57 57 56 57 57 58 59 59 58 59 59 60 58 58 58 56 45 40 40 39 38
59 59 57 57 56 56 56 57 54 51 47 43 43 39 42 45 43 41 38 36 35 36
59 58 57 57 57 54 47 45 42 40 39 37 38 38 39 38 38 36 35 34 34 34
59 59 58 53 46 43 41 39 37 36 36 35 35 36 36 35 34 33 32 32 32 32
60 50 45 42 39 38 37 36 35 35 34 33 33 35 35 34 32 31 31 31 30 30
47 44 40 38 37 36 36 34 34 33 34 34 33 34 34 33 32 30 30 30 30 31
42 39 38 36 35 34 33 32 32 31 32 33 33 34 34 34 32 30 29 29 28 30

GFSNIL_sfc_temp_111.txt.gz
Temp
59 59 60 60 60 61 61 61 60 61 62 62 61 60 60 59 58 57 57 56 56 56
59 59 59 60 61 61 62 61 60 60 60 60 60 60 59 58 57 57 57 57 56 56
58 58 58 59 59 59 59 60 59 59 60 60 59 59 59 58 57 57 56 56 56 56
58 57 57 57 59 59 59 59 59 59 59 58 58 59 58 58 57 56 56 56 56 57
57 58 57 57 57 58 58 58 58 58 58 58 58 57 57 57 57 56 55 56 56 56
58 58 57 57 57 57 58 58 58 58 57 57 57 57 57 57 58 57 57 56 55 51
57 57 57 57 57 55 57 57 58 58 58 58 58 58 58 58 56 53 47 44 42 41
58 57 56 56 56 57 56 56 57 57 57 57 57 56 55 55 52 44 40 39 38 38
57 55 55 55 55 56 57 55 55 52 50 47 45 40 44 47 44 41 38 35 35 36
56 55 54 55 54 54 49 47 43 42 41 39 39 39 40 39 39 37 35 35 34 34
56 55 55 53 47 43 42 40 38 37 37 36 36 37 37 35 34 33 33 33 33 32
57 51 47 43 40 39 38 36 35 35 34 34 34 35 35 34 32 30 29 30 31 31
49 46 41 39 38 37 36 34 34 33 33 34 32 35 35 34 31 29 28 30 30 31
45 43 40 37 37 35 34 33 32 32 32 32 33 33 34 34 31 29 29 28 27 28

GFSNIL_sfc_temp_117.txt.gz
Temp
66 65 65 64 63 63 61 62 63 62 62 60 60 60 61 63 63 64 63 64 64 64
64 62 62 61 62 63 63 64 62 62 62 62 60 61 62 63 62 63 62 61 61 61
65 65 63 63 63 63 62 62 61 62 61 61 61 61 60 61 62 61 60 60 60 59
63 62 61 61 62 65 64 65 64 63 61 60 60 60 60 60 60 59 58 58 57 57
63 61 60 60 62 63 61 62 62 61 61 61 60 60 59 58 58 58 57 57 57 56
62 60 59 61 60 61 60 59 59 59 59 58 60 59 59 59 58 58 57 58 57 58
61 59 59 59 59 60 60 57 58 58 58 58 59 59 59 58 58 57 57 56 56 56
61 60 59 58 59 58 58 59 58 57 57 57 57 57 57 55 48 45 41 40 40 40
59 58 58 57 57 57 57 57 56 55 53 52 49 42 43 46 43 41 38 35 35 36
58 57 57 57 57 56 52 50 47 46 45 43 43 41 40 39 40 37 35 34 34 33
58 57 57 56 50 47 46 44 42 40 39 38 38 38 38 37 36 34 34 33 33 32
59 56 53 48 44 42 40 38 37 37 36 35 35 36 36 35 33 32 31 32 32 31
58 52 48 43 41 39 37 35 34 34 34 34 34 35 35 35 33 30 29 29 30 31
52 47 44 40 38 36 34 34 33 32 32 33 34 34 35 34 32 29 27 27 27 28

GFSNIL_sfc_temp_120.txt.gz
Temp
71 70 68 70 70 66 64 62 62 60 60 57 57 58 60 63 68 70 71 71 72 74
67 72 71 71 70 69 66 64 64 63 60 59 57 57 60 63 65 67 69 69 71 73
69 73 72 70 70 69 65 64 62 61 61 61 60 59 59 61 64 65 65 70 69 70
68 70 70 66 66 67 65 63 61 62 61 60 60 61 60 58 61 65 66 68 68 66
67 71 70 68 69 68 67 69 68 65 62 60 59 60 60 60 62 66 66 65 64 63
66 69 67 68 68 64 63 64 63 63 62 61 61 59 59 60 60 60 61 62 62 61
65 67 68 69 65 63 63 63 60 61 61 60 59 60 60 59 58 58 58 58 58 57
65 67 68 67 63 63 63 61 61 61 60 57 58 58 58 58 57 55 49 44 43 42
65 65 66 65 62 61 60 59 59 59 55 51 47 41 43 46 44 41 39 36 35 35
66 65 65 64 62 58 56 53 48 47 46 43 42 39 40 40 40 38 37 35 34 33
64 64 65 62 58 52 50 47 43 40 40 39 38 37 37 36 35 34 34 33 32 31
62 61 60 54 50 46 43 41 40 39 38 37 36 36 36 36 33 32 31 31 31 30
60 57 52 47 43 42 39 37 37 35 36 36 35 36 36 36 33 31 29 29 29 30
56 51 47 42 40 38 36 35 34 33 34 35 35 35 35 35 32 31 29 28 28 29

GFSNIL_sfc_temp_123.txt.gz
Temp
68 70 76 74 71 71 67 64 64 62 61 61 60 59 61 61 61 62 62 65 71 74
65 69 74 75 70 73 69 67 64 62 60 59 58 59 59 59 60 61 62 62 68 69
63 67 71 73 71 71 72 67 63 62 60 58 58 58 58 59 60 60 61 64 68 69
63 65 68 70 70 71 70 70 66 62 60 58 57 58 58 58 59 60 62 66 67 67
62 64 66 68 71 72 70 70 65 62 61 59 58 57 57 57 58 59 61 63 65 66
62 63 65 66 69 67 68 70 67 66 64 61 59 58 58 58 58 58 60 62 65 67
62 63 64 68 67 65 68 69 69 68 68 66 61 60 59 58 58 58 59 59 62 64
61 62 64 65 64 65 66 67 65 63 62 62 61 61 60 59 58 58 59 55 53 54
60 61 63 63 63 63 64 64 62 61 57 53 50 41 44 52 54 50 43 39 38 40
60 61 65 63 63 62 61 58 52 49 48 45 43 40 40 40 40 38 37 35 35 33
59 62 66 62 60 56 54 48 44 42 42 40 39 38 37 37 36 34 33 33 33 33
57 64 65 58 52 48 45 43 40 40 38 38 37 36 36 36 34 32 31 32 31 31
45 62 58 49 46 44 41 39 38 36 37 36 36 36 37 36 34 30 29 29 29 30
44 54 51 45 42 39 37 36 35 34 35 35 36 35 36 36 34 31 29 28 27 28

GFSNIL_sfc_temp_126.txt.gz
Temp
65 66 67 65 67 67 66 65 64 64 63 63 62 62 61 61 61 61 61 61 63 65
64 65 65 67 68 68 66 65 64 62 61 61 61 61 60 60 60 60 60 61 61 63
65 64 65 65 66 67 65 64 63 61 60 59 59 59 59 60 60 59 59 61 61 62
64 63 63 64 66 68 66 65 63 61 59 59 58 58 58 58 59 59 59 60 60 61
63 63 63 63 64 64 66 65 63 62 60 58 58 57 57 57 59 59 59 59 59 59
62 62 61 63 63 65 65 65 64 62 59 58 57 57 57 58 59 59 59 59 60 59
59 61 62 62 63 63 64 64 65 63 61 60 58 57 57 58 58 58 59 59 59 60
56 61 61 61 62 62 62 63 64 63 63 62 59 58 57 57 57 57 57 56 56 55
54 58 60 60 60 61 61 61 61 60 57 53 51 41 46 53 57 56 56 54 46 45
51 54 59 60 60 59 59 56 51 49 48 44 42 40 41 40 42 40 40 41 40 36
47 50 57 59 59 56 52 48 45 43 42 39 38 38 38 37 36 34 34 34 34 34
44 44 48 54 54 49 45 42 40 39 38 37 36 36 37 36 35 33 32 32 32 33
43 43 45 50 49 45 42 39 38 36 37 36 35 36 37 36 34 30 29 30 30 32
42 41 43 47 44 40 37 36 34 34 34 35 35 35 36 36 33 31 29 28 27 29